Погода в Деревне Первый Воин

Россия / Орловская область     53°10′51″N   36°24′31″E
темп.,
°C
ветер,
м/с
пор.,
м/с
влажн.,
%
обл.,
%
осадки,
мм/ч
давл.,
гПа
погр.,
м
9 мая, вс
вс900:00+7зсз5897100 0.8 1004664
03:00+4сз71397100 2.8 1008987
06:00+3сз71497100 4.8 1010720
09:00+5сз81184100 4.9 10121093
12:00+6сз81181100 0.4 10151127
15:00+8сз9116892 0.6 10171482
18:00+9сз6116513 0.1 10191619
21:00+5зсз49815 0.1 1021166
10 мая, пн
пн1000:00+3сз411835 0.0 1023201
03:00+2ссз412835 0.0 1025217
06:00+3ссз310790 0.0 1026217
09:00+9с58620 0.0 1027589
12:00+12с79495 0.0 10271684
15:00+12ссв810450 0.0 10261680
18:00+11ссв610610 0.0 10261187
21:00+6с412800 0.0 1027235
11 мая, вт
вт1100:00+7ссв6156923 0.0 1026441
03:00+7ссв61468100 0.0 1025450
06:00+7ссв6147384 0.0 1025448
09:00+10св71479100 0.1 1024486
12:00+14всв8127484 0.0 1024924
15:00+16всв71175100 0.1 10231161
18:00+15в6118228 0.5 1024932
21:00+10в33910 0.5 102434
12 мая, ср
ср1200:00+9юв3689100 0.0 1025131
03:00+7ююв3794100 3.1 1024316
06:00+8в3596100 2.9 1024195
09:00+12в46777 2.9 1023705
12:00+15в796463 0.2 10221476
15:00+15вюв6966100 0.8 10201364
18:00+13юв4876100 0.6 1020270
21:00+11ю388499 0.8 1020282
13 мая, чт
чт1300:00+10вюв3791100 0.1 1019190
03:00+10вюв2594100 0.3 1019104
06:00+10вюв4109099 0.0 1019334
09:00+14юв5107893 0.0 1018590
12:00+18ююв686352 0.0 10181513
15:00+18ююв466688 0.1 1017956
18:00+18юв476819 0.1 1017456
21:00+14юв3682100 0.1 101781